[[{"header":{"parameterUnit":"m.s-1","parameterCategory":1,"la1":30.2991,"la2":30.254,"lo1":-89.0895,"lo2":-89.0444,"dy":0.0017,"dx":0.0017,"nx":28,"ny":28,"refTime":"2025-08-30T03:00:00:Z","depth":0,"parameterNumber":2,"parameterNumberName":"U-component_of_WINDS"},"data":[0,0,0,0,0,0,0,0,0,0,0,0,0,0,0,0,0,0,0,0,0,0,0,0,0,0,0,0,0,0,0,0,0,0,0,0,0,0,0,0,0,0,0,0,0,0,0,0,0,0,0,0,0,0,0,0,0,0,-3.4502,-3.4504,0,-3.4664,-3.4666,-3.4667,-3.4693,-3.4691,-3.469,-3.4688,-3.4849,-3.4855,-3.486,0,0,0,0,0,0,0,0,0,0,0,0,0,-3.4211,-3.4216,-3.4502,-3.4504,-3.4506,-3.4663,-3.4666,-3.4668,-3.4693,-3.4691,-3.4689,-3.4688,-3.4847,-3.4854,-3.4861,0,0,0,0,0,0,0,0,0,0,0,0,0,-3.4351,-3.4218,-3.4502,-3.4538,-3.4543,-3.4663,-3.4666,-3.4668,-3.4693,-3.4691,-3.4689,-3.4687,-3.4845,-3.4853,-3.4862,-3.4956,0,0,-3.4887,-3.4891,0,0,0,0,0,0,0,0,-3.4343,-3.4362,-3.453,-3.4535,-3.4541,-3.4656,-3.4622,-3.4765,-3.4694,-3.4636,-3.4688,-3.4686,-3.4786,-3.4799,-3.4834,-3.4963,-3.497,-3.4888,-3.4893,-3.4897,-3.4899,0,0,0,0,0,0,0,-3.4333,-3.4355,-3.4566,-3.4533,-3.4539,-3.4544,-3.4562,-3.4649,-3.4721,-3.4641,-3.4643,-3.4662,-3.4789,-3.4826,-3.4838,-3.4973,-3.4888,-3.4895,-3.49,-3.4904,-3.5186,-3.5188,0,0,0,0,0,0,-3.4318,-3.4347,-3.4561,-3.4571,-3.4435,-3.4551,-3.4571,-3.4621,-3.472,-3.4733,-3.4664,-3.4663,-3.4813,-3.4828,-3.4844,-3.496,-3.4897,-3.4904,-3.4909,-3.5183,-3.5186,-3.5189,0,0,0,0,0,0,-3.4311,-3.4337,-3.4554,-3.4459,-3.4488,-3.4559,-3.4615,-3.4625,-3.4663,-3.4737,-3.475,-3.4689,-3.4812,-3.4832,-3.4928,-3.4965,-3.4908,-3.4916,-3.5181,-3.5184,-3.5188,-3.5192,0,0,0,0,0,0,-3.4303,-3.4334,-3.4372,-3.446,-3.4493,-3.4637,-3.4617,-3.463,-3.4678,-3.4678,-3.4764,-3.4777,-3.4812,-3.4915,-3.4936,-3.4976,-3.4922,-3.5177,-3.5182,-3.5187,-3.5189,-3.5196,-3.5201,0,0,0,0,0,-3.4292,-3.4366,-3.4374,-3.4399,-3.4541,-3.4639,-3.4657,-3.4698,-3.4681,-3.4718,-3.4766,-3.4774,-3.4958,-3.4925,-3.4949,-3.4992,-3.5175,-3.5181,-3.5186,-3.5186,-3.5194,-3.5201,0,0,0,0,0,0,-3.4279,-3.4378,-3.4388,-3.4493,-3.4557,-3.4643,-3.4692,-3.4705,-3.4775,-3.4772,-3.4817,-3.4837,-3.493,-3.4971,-3.4931,-3.5087,-3.5065,-3.5076,-3.5057,-3.5065,-3.5071,-3.5059,-3.4929,0,0,0,0,0,-3.4288,-3.4361,-3.4443,-3.4528,-3.456,-3.462,-3.4664,-3.469,-3.4758,-3.4785,-3.484,-3.4905,-3.4977,-3.5024,-3.5095,-3.5196,-3.5214,-3.5237,-3.5243,-3.5248,-3.5256,-3.531,-3.5321,-3.5207,-3.5207,-3.5207,0,0,-3.4308,-3.4371,-3.4414,-3.4527,-3.458,-3.4652,-3.4643,-3.472,-3.4774,-3.4796,-3.489,-3.4933,-3.5008,-3.5106,-3.5152,-3.5143,-3.5291,-3.5255,-3.5258,-3.5264,-3.5317,-3.5328,-3.5337,-3.5211,-3.521,-3.521,0,0,-3.438,-3.4437,-3.4512,-3.4566,-3.4647,-3.4687,-3.4705,-3.479,-3.4819,-3.4914,-3.4932,-3.4996,-3.5121,-3.5173,-3.5216,-3.5308,-3.5317,-3.533,-3.5361,-3.5414,-3.5423,-3.5431,-3.5462,-3.5473,-3.5338,-3.5338,-3.5338,0,-3.4394,-3.4505,-3.4549,-3.4626,-3.4674,-3.47,-3.4775,-3.4825,-3.4924,-3.4956,-3.4945,-3.5101,-3.5154,-3.5264,-3.5287,-3.5321,-3.5342,-3.532,-3.5419,-3.5427,-3.5435,-3.5466,-3.5477,-3.5339,-3.5339,-3.5339,-3.5339,0,-3.4517,-3.4594,-3.4645,-3.4742,-3.4796,-3.4872,-3.4926,-3.4975,-3.4996,-3.5036,-3.5132,-3.5196,-3.528,-3.5308,-3.5329,-3.5421,-3.5413,-3.541,-3.5388,-3.5446,-3.5475,-3.5487,-3.534,-3.534,-3.534,-3.534,0,0,-3.4584,-3.4705,-3.4723,-3.4766,-3.4858,-3.4917,-3.4994,-3.5077,-3.5118,-3.5186,-3.5249,-3.5354,-3.5352,-3.5401,-3.5428,-3.5474,-3.5541,-3.5465,-3.5468,-3.5475,-3.5644,-3.5645,-3.5657,-3.5548,-3.5551,-3.5553,-3.5637,0,-3.4666,-3.4805,-3.4846,-3.4961,-3.5032,-3.5057,-3.5123,-3.5186,-3.5226,-3.529,-3.5334,-3.5406,-3.5399,-3.5428,-3.5476,-3.5523,-3.5575,-3.5518,-3.5606,-3.5609,-3.5584,-3.5673,-3.5674,-3.575,-3.5649,-3.5651,-3.5653,0,-3.478,-3.4851,-3.4973,-3.5055,-3.5086,-3.5145,-3.5224,-3.5287,-3.5357,-3.5383,-3.5437,-3.546,-3.5539,-3.5515,-3.5623,-3.5583,-3.5621,-3.565,-3.5654,-3.5662,-3.5633,-3.5681,-3.5776,-3.5787,-3.5671,-3.567,-3.5669,0,-3.4814,-3.494,-3.503,-3.5066,-3.5165,-3.5205,-3.5248,-3.5317,-3.5364,-3.5433,-3.5463,-3.554,-3.5582,-3.564,-3.5682,-3.5661,-3.5786,-3.5766,-3.5808,-3.5807,-3.5831,-3.5829,-3.5931,-3.586,-3.586,-3.5859,-3.5859,0,-3.4899,-3.4973,-3.5046,-3.5101,-3.5183,-3.523,-3.531,-3.5353,-3.5415,-3.5477,-3.5504,-3.5561,-3.5615,-3.5679,-3.5713,-3.5796,-3.5815,-3.5837,-3.5844,-3.5833,-3.583,-3.5858,-3.5853,-3.5863,-3.5862,-3.5861,-3.5861,0,-3.495,-3.5003,-3.5102,-3.5187,-3.521,-3.5267,-3.5339,-3.5392,-3.5434,-3.5512,-3.5533,-3.5597,-3.5674,-3.5723,-3.5821,-3.5844,-3.5934,-3.5941,-3.5911,-3.5914,-3.5953,-3.5947,-3.6075,-3.6093,-3.6011,-3.6012,-3.6012,0,-3.5001,-3.5058,-3.515,-3.5194,-3.5237,-3.5308,-3.5357,-3.5405,-3.5454,-3.5539,-3.5581,-3.5661,-3.5726,-3.5848,-3.5902,-3.5977,-3.5985,-3.6024,-3.5996,-3.5982,-3.5983,-3.5978,-3.5983,-3.6028,-3.6028,-3.6029,-3.603,0,-3.5083,-3.5106,-3.5176,-3.5255,-3.5312,-3.5376,-3.544,-3.5475,-3.5533,-3.5587,-3.5667,-3.5718,-3.5818,-3.5896,-3.5975,-3.6017,-3.6033,-3.6039,-3.6052,-3.604,-3.6019,-3.6029,-3.5921,-3.6035,-3.6034,-3.6034,-3.6034,-3.6033,-3.5134,-3.5186,-3.5258,-3.5335,-3.5388,-3.5447,-3.5501,-3.5549,-3.5617,-3.5703,-3.5728,-3.581,-3.5879,-3.5988,-3.6031,-3.6096,-3.609,-3.611,-3.6115,-3.6118,-3.6118,-3.6011,-3.6111,-3.6111,-3.6111,-3.6111,-3.6111,0,-3.5216,-3.5265,-3.5335,-3.5423,-3.5483,-3.5495,-3.5566,-3.5614,-3.5687,-3.5751,-3.5815,-3.5906,-3.5982,-3.6042,-3.612,-3.6159,-3.6168,-3.6178,-3.6174,-3.6183,-3.6119,-3.6099,-3.6169,-3.6169,-3.6169,-3.6169,-3.6169,-3.6169,-3.5266,-3.5353,-3.5385,-3.5498,-3.5546,-3.5628,-3.5668,-3.5722,-3.5772,-3.5873,-3.5936,-3.5976,-3.6038,-3.612,-3.6189,-3.6205,-3.6231,-3.6239,-3.6256,-3.6194,-3.6188,-3.6181,-3.6163,-3.6245,-3.6245,-3.6314,-3.6315,-3.6315]},{"header":{"parameterUnit":"m.s-1","parameterCategory":1,"la1":30.2991,"la2":30.254,"lo1":-89.0895,"lo2":-89.0444,"dy":0.0017,"dx":0.0017,"nx":28,"ny":28,"refTime":"2025-08-30T03:00:00:Z","depth":0,"parameterNumber":3,"parameterNumberName":"V-component_of_WINDS"},"data":[0,0,0,0,0,0,0,0,0,0,0,0,0,0,0,0,0,0,0,0,0,0,0,0,0,0,0,0,0,0,0,0,0,0,0,0,0,0,0,0,0,0,0,0,0,0,0,0,0,0,0,0,0,0,0,0,0,0,-1.0452,-1.0453,0,-1.0563,-1.0565,-1.0566,-1.0604,-1.0604,-1.0603,-1.0603,-1.0723,-1.0726,-1.073,0,0,0,0,0,0,0,0,0,0,0,0,0,-1.0279,-1.0282,-1.0452,-1.0454,-1.0455,-1.0563,-1.0565,-1.0566,-1.0604,-1.0604,-1.0603,-1.0603,-1.0722,-1.0726,-1.073,0,0,0,0,0,0,0,0,0,0,0,0,0,-1.0369,-1.0283,-1.0452,-1.0487,-1.0491,-1.0563,-1.0565,-1.0567,-1.0604,-1.0604,-1.0603,-1.0602,-1.072,-1.0725,-1.0731,-1.0778,0,0,-1.0747,-1.075,0,0,0,0,0,0,0,0,-1.0364,-1.0375,-1.048,-1.0484,-1.0489,-1.0569,-1.0548,-1.0638,-1.0605,-1.0561,-1.0603,-1.0602,-1.0673,-1.0682,-1.0704,-1.0784,-1.0789,-1.0748,-1.0751,-1.0753,-1.0755,0,0,0,0,0,0,0,-1.0357,-1.0371,-1.0496,-1.0482,-1.0487,-1.0499,-1.0511,-1.0565,-1.062,-1.0565,-1.0568,-1.0581,-1.0675,-1.0699,-1.0708,-1.0791,-1.0748,-1.0753,-1.0756,-1.0758,-1.0916,-1.0917,0,0,0,0,0,0,-1.0344,-1.0365,-1.0493,-1.05,-1.0423,-1.0503,-1.0516,-1.0544,-1.0619,-1.063,-1.0581,-1.0582,-1.069,-1.0701,-1.0712,-1.0773,-1.0753,-1.0759,-1.0762,-1.0915,-1.0916,-1.0917,0,0,0,0,0,0,-1.0341,-1.0355,-1.0488,-1.0433,-1.0451,-1.0506,-1.0538,-1.0547,-1.0571,-1.0631,-1.0642,-1.0595,-1.069,-1.0704,-1.0761,-1.0777,-1.0761,-1.0766,-1.0914,-1.0915,-1.0917,-1.0894,0,0,0,0,0,0,-1.0335,-1.0354,-1.0371,-1.0433,-1.0454,-1.0534,-1.0539,-1.0549,-1.0579,-1.0582,-1.0647,-1.0657,-1.0691,-1.0753,-1.0767,-1.0785,-1.077,-1.0913,-1.0915,-1.0916,-1.0894,-1.0895,-1.0896,0,0,0,0,0,-1.0329,-1.0361,-1.0371,-1.0386,-1.0476,-1.0534,-1.0546,-1.0582,-1.058,-1.0599,-1.0638,-1.0655,-1.0773,-1.0758,-1.0774,-1.0794,-1.0912,-1.0914,-1.0916,-1.0893,-1.0895,-1.0896,0,0,0,0,0,0,-1.0301,-1.037,-1.0382,-1.0435,-1.0478,-1.0541,-1.0565,-1.0582,-1.0629,-1.0629,-1.0673,-1.0688,-1.0742,-1.0774,-1.0756,-1.0845,-1.0844,-1.0849,-1.0821,-1.0823,-1.0824,-1.0815,-1.0775,0,0,0,0,0,-1.03,-1.034,-1.0399,-1.044,-1.0461,-1.0509,-1.0536,-1.056,-1.0608,-1.0627,-1.067,-1.0717,-1.0765,-1.0796,-1.0843,-1.0899,-1.0915,-1.0921,-1.0922,-1.0922,-1.0926,-1.0959,-1.0963,-1.0924,-1.0924,-1.0924,0,0,-1.03,-1.0343,-1.0366,-1.0435,-1.0472,-1.0514,-1.0524,-1.0569,-1.0601,-1.0634,-1.069,-1.0723,-1.078,-1.0836,-1.0863,-1.0865,-1.0941,-1.0925,-1.0924,-1.0929,-1.0962,-1.0966,-1.0969,-1.0926,-1.0925,-1.0925,0,0,-1.0322,-1.0358,-1.0396,-1.0432,-1.0486,-1.0518,-1.0528,-1.0588,-1.0611,-1.0667,-1.0693,-1.0734,-1.0815,-1.0854,-1.0885,-1.0922,-1.094,-1.0937,-1.0941,-1.0973,-1.0976,-1.0979,-1.0993,-1.0998,-1.0941,-1.0941,-1.0941,0,-1.0315,-1.0378,-1.0414,-1.0456,-1.0487,-1.0517,-1.0558,-1.0592,-1.066,-1.0682,-1.0682,-1.0785,-1.0825,-1.0891,-1.09,-1.0924,-1.0938,-1.0929,-1.0972,-1.0976,-1.0979,-1.0993,-1.0998,-1.094,-1.094,-1.094,-1.094,0,-1.0368,-1.0411,-1.0436,-1.0499,-1.0533,-1.0574,-1.0618,-1.0648,-1.067,-1.0702,-1.076,-1.0809,-1.0868,-1.0885,-1.0907,-1.0956,-1.0955,-1.0963,-1.0963,-1.0981,-1.0995,-1.1001,-1.0939,-1.0939,-1.0939,-1.0939,0,0,-1.0374,-1.0456,-1.0465,-1.0494,-1.0557,-1.0592,-1.0636,-1.0691,-1.0717,-1.0763,-1.0802,-1.0871,-1.0879,-1.0914,-1.0941,-1.0968,-1.0996,-1.0974,-1.0976,-1.0977,-1.1054,-1.1048,-1.1053,-1.1009,-1.101,-1.1011,-1.105,0,-1.0404,-1.0481,-1.0515,-1.0577,-1.0619,-1.0649,-1.0687,-1.0731,-1.0763,-1.0805,-1.0842,-1.0889,-1.0896,-1.0917,-1.0946,-1.0986,-1.1012,-1.0984,-1.1047,-1.1049,-1.1032,-1.106,-1.1053,-1.1087,-1.1055,-1.1056,-1.1057,0,-1.0449,-1.0493,-1.0559,-1.0618,-1.0637,-1.067,-1.0724,-1.0763,-1.0814,-1.0836,-1.0875,-1.09,-1.095,-1.0947,-1.1017,-1.0997,-1.1025,-1.1049,-1.1052,-1.1059,-1.1054,-1.1069,-1.1099,-1.1104,-1.1066,-1.1065,-1.1065,0,-1.0447,-1.0524,-1.0573,-1.0598,-1.0667,-1.069,-1.0721,-1.0771,-1.0803,-1.0851,-1.0872,-1.0926,-1.0956,-1.0998,-1.1039,-1.1032,-1.1106,-1.1105,-1.1127,-1.1126,-1.114,-1.1139,-1.1176,-1.1158,-1.1158,-1.1158,-1.1158,0,-1.0477,-1.0516,-1.0573,-1.0604,-1.065,-1.069,-1.0735,-1.0768,-1.0813,-1.0852,-1.0882,-1.0919,-1.097,-1.1014,-1.1047,-1.1101,-1.1114,-1.1134,-1.1143,-1.1132,-1.1129,-1.1151,-1.115,-1.1159,-1.1159,-1.1159,-1.1159,0,-1.0482,-1.0522,-1.0578,-1.0639,-1.0656,-1.0687,-1.074,-1.0772,-1.0806,-1.0855,-1.0869,-1.0923,-1.0976,-1.1021,-1.1092,-1.1114,-1.117,-1.118,-1.1152,-1.1156,-1.1175,-1.1173,-1.1227,-1.1237,-1.1212,-1.1212,-1.1212,0,-1.0498,-1.0529,-1.0593,-1.0621,-1.065,-1.0694,-1.0726,-1.0767,-1.08,-1.0861,-1.0886,-1.0942,-1.0988,-1.1072,-1.1119,-1.1174,-1.1185,-1.1201,-1.1194,-1.1182,-1.1187,-1.1184,-1.1188,-1.1201,-1.1201,-1.1201,-1.1201,0,-1.0523,-1.0542,-1.0585,-1.0636,-1.0672,-1.0715,-1.0758,-1.078,-1.083,-1.0865,-1.0919,-1.0955,-1.1026,-1.1082,-1.1141,-1.1176,-1.1198,-1.1203,-1.1211,-1.12,-1.1183,-1.1193,-1.1154,-1.1202,-1.1202,-1.1202,-1.1202,-1.1202,-1.0535,-1.0564,-1.0614,-1.0662,-1.0698,-1.0739,-1.0772,-1.0809,-1.0854,-1.0914,-1.0937,-1.0992,-1.1045,-1.1128,-1.1162,-1.1208,-1.1211,-1.1222,-1.1225,-1.1227,-1.1226,-1.1175,-1.1219,-1.1219,-1.1219,-1.1219,-1.1219,0,-1.0562,-1.0595,-1.0639,-1.0698,-1.0736,-1.0751,-1.0801,-1.0832,-1.088,-1.0927,-1.0971,-1.1034,-1.1088,-1.1139,-1.1196,-1.1223,-1.1235,-1.1237,-1.1236,-1.1243,-1.122,-1.1207,-1.1227,-1.1227,-1.1227,-1.1227,-1.1227,-1.1227,-1.058,-1.063,-1.0655,-1.0724,-1.0758,-1.0811,-1.0838,-1.0876,-1.0913,-1.0981,-1.1025,-1.1058,-1.1107,-1.1168,-1.1219,-1.1233,-1.1253,-1.1253,-1.1269,-1.1246,-1.1245,-1.1244,-1.1232,-1.1257,-1.1257,-1.1289,-1.129,-1.129]}]]